Weather History for Moline, IL

Change the Weather History Date:

Monday, January 21, 2013

  Actual Average Record
Temperature  
Mean Temperature 8 °F 22 °F  
Max Temperature 13 °F 31 °F 64 °F (1957)
Min Temperature 3 °F 14 °F -21 °F (1970)
Degree Days  
Heating Degree Days 57 43  
Month to date heating degree days 837 892  
Since 1 July heating degree days 3183 3313  
Cooling Degree Days 0 0  
Month to date cooling degree days 0 0  
Year to date cooling degree days 0 0  
Moisture  
Dew Point -3 °F    
Average Humidity 60    
Maximum Humidity 73    
Minimum Humidity 46    
Precipitation  
Precipitation T in 0.04 in 1.35 in (1874)
Month to date precipitation 0.74 1.03  
Year to date precipitation 0.74 1.03  
Snow  
Snow T in 0.30 in - ()
Month to date snowfall 1.6 6.4  
Since 1 July snowfall 6.9 16.9  
Snow Depth T in    
Sea Level Pressure  
Sea Level Pressure 30.33 in    
Wind  
Wind Speed 16 mph (WNW)    
Max Wind Speed 28 mph    
Max Gust Speed 40 mph    
Visibility 10 miles    
Events Snow    
T = Trace of Precipitation, MM = Missing Value Source: NWS Daily Summary

Daily Weather History Graph

Daily Weather History Graph

Search for Another Location

Airport:

Trip Planner

Search our weather history database for the weather conditions in past years. The results will help you decide how hot, cold, wet, or windy it might be!

Date:

Astronomy

Jan. 21, 2013 Rise Set
Actual Time 7:22 AM CST 5:04 PM CST
Civil Twilight 6:52 AM CST 5:34 PM CST
Nautical Twilight 6:18 AM CST 6:08 PM CST
Astronomical Twilight 5:45 AM CST 6:41 PM CST
Moon 12:44 PM CST 2:51 AM CST
Length of Visible Light 10h 42m
Length of Day
9h 42m
Waxing Gibbous, 75% of the Moon is Illuminated
Jan 21
Waxing Gibbous
Jan 26
Full
Feb 3
Last Quarter
Feb 10
New
Feb 17
First Quarter

Hourly Weather History & Observations

Time (CST) Temp. Windchill Dew Point Humidity Pressure Visibility Wind Dir Wind Speed Gust Speed Precip Events Conditions
12:52 AM 12.9 °F -2.2 °F 5.0 °F 71% 30.29 in 7.0 mi WNW 13.8 mph - 0.00 in Snow Light Snow
1:52 AM 12.9 °F -4.9 °F 5.0 °F 71% 30.28 in 9.0 mi West 19.6 mph 24.2 mph 0.00 in   Overcast
2:52 AM 12.0 °F -4.0 °F 3.0 °F 67% 30.27 in 10.0 mi WNW 15.0 mph 25.3 mph 0.00 in   Mostly Cloudy
3:49 AM 8.6 °F -7.7 °F 1.4 °F 73% 30.24 in 10.0 mi West 13.8 mph 23.0 mph N/A   Scattered Clouds
3:52 AM 9.0 °F -5.9 °F 1.9 °F 73% 30.27 in 10.0 mi West 11.5 mph 21.9 mph N/A   Partly Cloudy
4:43 AM 8.6 °F -8.3 °F 1.4 °F 73% 30.24 in 10.0 mi West 15.0 mph - N/A   Mostly Cloudy
4:52 AM 8.1 °F -10.2 °F -0.0 °F 70% 30.27 in 10.0 mi West 17.3 mph - N/A   Mostly Cloudy
5:52 AM 8.1 °F -9.6 °F -0.9 °F 67% 30.29 in 10.0 mi WNW 16.1 mph 28.8 mph N/A   Overcast
6:45 AM 6.8 °F -12.4 °F -2.2 °F 67% 30.27 in 10.0 mi NW 18.4 mph 27.6 mph N/A   Scattered Clouds
6:52 AM 6.1 °F -13.3 °F -2.9 °F 67% 30.31 in 10.0 mi NW 18.4 mph 27.6 mph N/A   Scattered Clouds
7:52 AM 3.0 °F -17.8 °F -9.0 °F 57% 30.33 in 10.0 mi WNW 19.6 mph 29.9 mph N/A   Scattered Clouds
8:52 AM 3.0 °F -16.7 °F -9.0 °F 57% 30.36 in 10.0 mi NW 17.3 mph 27.6 mph N/A   Clear
9:52 AM 3.9 °F -16.1 °F -7.1 °F 60% 30.37 in 10.0 mi WNW 18.4 mph - N/A   Mostly Cloudy
10:08 AM 5.0 °F -13.0 °F -7.6 °F 56% 30.33 in 10.0 mi WNW 15.0 mph 24.2 mph N/A   Scattered Clouds
10:52 AM 6.1 °F -12.2 °F -7.1 °F 55% 30.38 in 10.0 mi WNW 16.1 mph 25.3 mph N/A   Clear
11:52 AM 8.1 °F -10.7 °F -7.1 °F 50% 30.36 in 10.0 mi WNW 18.4 mph 26.5 mph N/A   Clear
12:52 PM 9.0 °F -10.5 °F -8.0 °F 46% 30.34 in 10.0 mi WNW 20.7 mph 27.6 mph N/A   Clear
1:52 PM 10.0 °F -7.6 °F -8.0 °F 44% 30.33 in 10.0 mi West 17.3 mph 24.2 mph N/A   Clear
2:52 PM 10.0 °F -8.1 °F -7.1 °F 46% 30.33 in 10.0 mi West 18.4 mph 26.5 mph N/A   Clear
3:52 PM 10.0 °F -7.6 °F -6.0 °F 48% 30.34 in 10.0 mi West 17.3 mph 23.0 mph N/A   Partly Cloudy
4:52 PM 6.1 °F -9.5 °F -2.9 °F 67% 30.34 in 10.0 mi WSW 11.5 mph 20.7 mph N/A   Clear
5:52 PM 6.1 °F -10.9 °F -2.9 °F 67% 30.35 in 10.0 mi WSW 13.8 mph - N/A   Partly Cloudy
6:52 PM 5.0 °F -14.2 °F -4.0 °F 66% 30.36 in 10.0 mi West 17.3 mph - N/A   Clear
7:52 PM 5.0 °F -15.2 °F -5.1 °F 63% 30.36 in 10.0 mi West 19.6 mph 27.6 mph N/A   Clear
8:52 PM 3.9 °F -14.3 °F -4.0 °F 70% 30.37 in 10.0 mi West 15.0 mph 21.9 mph N/A   Clear
9:52 PM 3.2 °F -15.3 °F -4.0 °F 72% 30.33 in 10.0 mi West 15.0 mph 23.0 mph N/A   Clear
10:52 PM 3.9 °F -12.2 °F -4.0 °F 70% 30.39 in 10.0 mi West 11.5 mph 23.0 mph N/A   Clear
11:52 PM 3.0 °F -13.3 °F -4.0 °F 73% 30.38 in 10.0 mi WNW 11.5 mph - N/A   Clear